Weather in Saryg-Sep

Russia / Tyva Republic     51°29′30″N   95°32′52″E
temp.,
°C
wind,
m/s
gust,
m/s
humid.,
%
clouds,
%
prec.,
mm/h
press.,
hPa
HPBL,
m
28 february, sun
sun2801:00−23wsw0186100 0.0 104120
04:00−24ese0097100 0.0 104220
07:00−25se1199100 0.1 104520
10:00−21sse1194100 0.0 1044197
13:00−16nw1185100 0.0 1042357
16:00−16wnw218879 0.0 1040237
19:00−24nw119859 0.0 104120
22:00−26e009518 0.0 104320
1 march, mon
mon101:00−25ese119547 0.0 104220
04:00−25se1194100 0.0 104020
07:00−25se129297 0.0 103920
10:00−19se128497 0.0 1035193
13:00−13nnw017698 0.0 1030358
16:00−13wnw2285100 0.0 1027212
19:00−16wnw1191100 0.0 102720
22:00−16nw0089100 0.0 102620
2 march, tue
tue201:00−16nnw0188100 0.0 102420
04:00−15nw1188100 0.0 102320
07:00−15w1195100 0.1 102320
10:00−12wnw0092100 0.4 1022177
13:00−9nw1189100 0.4 1020295
16:00−8nw1188100 0.0 1019257
19:00−11nw1194100 0.1 102021
22:00−12wnw1196100 0.4 102121
3 march, wed
wed301:00−14e1197100 0.4 102120
04:00−14ene119589 0.0 101920
07:00−14ese119395 0.0 101820
10:00−10s0192100 0.1 1015151
13:00−7wnw1190100 0.6 1013283
16:00−7wnw118597 0.0 1012314
19:00−12nnw119597 0.0 101421
22:00−13sw1194100 0.0 101620
4 march, thu
thu401:00−13wnw1196100 0.1 101720
04:00−13wsw1196100 0.3 102020
07:00−16wnw1192100 0.4 102520
10:00−12w128641 0.0 1026246
13:00−9w367225 0.0 1027593
16:00−9w13690 0.0 1027500
19:00−16s11780 0.0 103020
22:00−18e12830 0.0 103320